User: anonymous   Login
Location: Caltech
(34.1382°N, 118.1253°W)
Time: 10:04:11
(UTC-08:00)
Language:

Cosmos 1606 - Orbit

View from above orbital plane
View from above orbital plane
View from above satellite
View from above satellite

Ground track
Ground track

The orbit data is extracted from the following two-line orbital elements,

1 15369U 84111A   17056.13684861  .00000945  00000-0  48283-4 0  9992
2 15369  82.5260 232.7612 0016552 288.1813  71.7617 15.15382193763498
Epoch (UTC): 25 February 2017 03:17:03
Eccentricity: 0.0016552
inclination: 82.5260°
perigee height: 508 km
apogee height: 531 km
right ascension of ascending node: 232.7612°
argument of perigee: 288.1813°
revolutions per day: 15.15382193
mean anomaly at epoch: 71.7617°
orbit number at epoch: 76349

The dashed part of the orbit path shows where the satellite is in the earth's shadow,  

DLR